Terminal Aerodrome Forecast
Issued by NWS

Home | Current Version | Previous Version | Text Only | Print | Product List | Glossary On
Versions: 1 2 3 4 5 6 7 8 9 10
000
FTUS46 KHNX 280737 AAA
TAFMCE
TAF AMD
KMCE 280737Z 2808/0106 VRB04KT P6SM BKN060
     FM281800 VRB04KT P6SM VCSH SCT025 BKN040
      TEMPO 2820/2824 3SM TSRAGS BKN025CB
     FM010400 VRB03KT P6SM BKN040=

USA.gov is the U.S. government's official web portal to all federal, state and local government web resources and services.